sat.trackr.live / text

‹ back to catalog

HAWK-12B

NORAD 64622 · 2025-138B

PAYLOAD ACTIVE UNKNOWN

§ Identity

Operator
Country
US
Launch date
2025-06-26
Launch site
RLLB
Launch vehicle
Mass (kg)
RCS (m²)

External: N2YO · Heavens-Above · Gunter

§ Orbital elements

Epoch: 2026-09-21T10:44:15.333216Z

Period
94.81 min
Inclination
97.4523°
Eccentricity
0.0013483
Mean motion
15.18812401 rev/d
Perigee alt
500.1 km
Apogee alt
518.7 km
Semi-major
6,887.6 km
B*
1.1143e-4
RAAN
266.1249°
Arg perigee
155.6073°
Mean anomaly
204.5802°
Rev number
6,847

§ Raw data

HAWK-12B1 64622U 25138B   26264.44739969  .00002255  00000+0  11143-3 0  99962 64622  97.4523 266.1249 0013483 155.6073 204.5802 15.18812401 68475

JSON: /api/v1/satellites/64622 · /tle

For live sub-satellite position, see the globe view (requires WebGL).

§ Visibility from observer

Set your observer location to see the next 7 days of passes ≥ 10°. The values pass through the URL so the page stays shareable.

No JS? Fill the form by hand. The geolocation button needs JavaScript.